Location: Mohawk View
(42.7837°N, 73.7885°W)
Time: 08:28:43
(UTC+00:00)

MINOTAUR 4 R/B - Pass Details

Date: 17 June 2021
Orbit: 475 x 481 km, 98.0° (Epoch: 27 July)

Event Time Altitude Azimuth Distance (km) Brightness Sun altitude
Exits shadow 07:28:34 30° 201° (SSW) 880 4.8 -15.1°
Maximum altitude 07:29:58 49° 260° (W) 620 4.3 -14.9°
Drops below altitude 10° 07:33:25 10° 336° (NNW) 1,653 7.1 -14.6°
Sets 07:35:32 0° 342° (NNW) 2,536 8.2 -14.3°
